Location: Shell Point
(30.0571°N, 84.2896°W)
Time: 14:57:13
(UTC-04:00)

Daily predictions for brighter satellites

Satellite Brightness Start Highest point End
(mag) Time Altitude Azimuth Time Altitude Azimuth Time Altitude Azimuth
Cosmos 1763 Rocket 4.4 20:58:47 10° NNW 21:03:45 50° WSW 21:08:39 10° S
SWIFT 4.1 21:03:14 10° SW 21:06:13 19° S 21:09:11 10° SE
Cosmos 1470 4.1 21:05:26 10° NNW 21:09:11 43° W 21:12:57 10° SSW
Cosmos 332 Rocket 4.4 21:07:58 10° N 21:12:33 41° ENE 21:17:07 10° SE
H-2A R/B 3.8 21:11:40 10° ESE 21:14:48 19° ENE 21:17:56 10° NNE
Meteor 1-16 Rocket 4.4 21:09:28 10° N 21:15:26 90° WSW 21:21:18 10° S
USA 229 DEB 3.8 21:09:03 10° SSW 21:15:48 60° ESE 21:22:37 10° NE
USA 229 3.8 21:09:09 10° SSW 21:15:54 60° ESE 21:22:43 10° NE
Cosmos 1441 Rocket 4.1 21:16:01 10° SSE 21:19:20 29° E 21:22:38 10° NNE
Cosmos 540 Rocket 3.5 21:16:35 10° N 21:21:44 69° ENE 21:26:51 10° SSE
GPS 2-12 Rocket1 4.5 21:18:54 10° SW 21:22:15 21° S 21:25:20 11° SE
Cosmos 1655 Rocket 4.0 21:16:04 10° S 21:22:17 85° E 21:28:31 10° N
OAO 2 Rocket 4.2 21:21:33 10° SSW 21:26:10 30° SSE 21:30:48 10° E
Cosmos 2322 Rocket 2.8 21:22:10 10° N 21:27:25 39° ENE 21:32:08 12° SE
S3M 4.4 21:22:01 10° N 21:27:47 42° E 21:33:33 10° SSE
Cosmos 1743 Rocket 3.6 21:27:14 10° S 21:31:39 66° E 21:36:06 10° NNE
Cosmos 2228 Rocket 3.3 21:30:05 10° N 21:34:27 52° E 21:38:49 10° SSE
In-Cosmos 22 4.2 21:29:43 10° S 21:35:25 71° E 21:41:10 10° NNE
Cosmos 968 Rocket 3.7 21:30:54 10° SSW 21:36:02 77° WNW 21:41:16 10° NNE
Cosmos 1980 Rocket 2.8 21:31:29 10° NNW 21:37:03 57° WSW 21:42:35 10° S
Cosmos 2360 Rocket 4.0 21:33:55 10° NNE 21:37:22 16° ENE 21:40:35 11° E
SL-16 R/B 2.7 21:32:02 10° N 21:37:28 45° ENE 21:41:52 15° SE
Cosmos 1500 Rocket 3.8 21:33:54 10° SSE 21:38:05 49° E 21:42:19 10° NNE
Resurs 01 Rocket 4.3 21:35:50 10° SW 21:38:38 16° W 21:41:27 10° NW
Cosmos 2221 3.8 21:36:27 10° NNW 21:40:28 41° W 21:44:31 10° SSW
FENGYUN 3A 4.0 21:35:42 10° S 21:41:04 70° WSW 21:46:29 10° NNW
ATLAS CENTAUR R/B 1.3 21:38:40 10° NNW 21:43:05 78° ENE 21:46:06 17° SSE
CZ-4 DEB 3.2 21:44:13 10° S 21:47:22 59° W 21:50:33 10° NNW
Cosmos 371 Rocket 3.3 21:43:51 10° N 21:48:37 65° ENE 21:52:11 18° SSE
ALOS 3.2 21:44:10 10° S 21:48:39 48° W 21:53:11 10° NNW
USA 186 3.1 21:47:41 10° SSW 21:49:42 25° W 21:51:46 10° NW
Cosmos 1939 Rocket 3.4 21:47:29 20° SE 21:49:52 41° ENE 21:53:34 10° N
deb Chang Zheng 4 3.5 21:46:33 10° NNE 21:50:53 83° E 21:55:14 10° S
Delta 2 Rocket 3.7 21:50:43 10° W 21:54:15 50° NNW 21:57:34 10° ENE
Cosmos 1674 3.0 21:53:26 20° SSE 21:55:46 45° E 21:59:28 10° NNE
Envisat 3.4 21:53:30 20° SE 21:56:43 45° ENE 22:01:33 10° N
SPOT 5 3.6 21:55:18 22° ESE 21:57:22 32° ENE 22:01:29 10° N
GPS 2-04 Rocket1 2.8 21:56:13 10° WNW 22:00:36 86° SSW 22:02:52 27° ESE
Cosmos 1833 4.2 21:56:39 10° SSW 22:02:23 86° ESE 22:08:06 10° NNE
ERS-1 Rocket 3.0 21:59:07 14° S 22:03:28 84° WSW 22:08:32 10° NNW
Tiangong 1 0.9 22:02:39 10° SW 22:05:42 60° SE 22:06:59 30° ENE
Meteor 2-2 Rocket 4.4 22:02:19 10° N 22:08:16 62° E 22:12:06 23° SSE
Cosmos 1437 3.2 22:08:49 40° ESE 22:09:04 41° E 22:12:11 10° NNE
Cosmos 1437 Rocket 2.7 22:07:58 10° N 22:11:45 60° E 22:13:00 38° SE
Cosmos 1515 Rocket 3.5 22:07:29 10° N 22:11:56 86° E 22:14:29 25° S
PSLV R/B 3.8 22:16:12 39° ENE 22:16:12 39° ENE 22:19:02 10° N
Cosmos 2266 Rocket 4.0 22:12:19 10° S 22:18:41 88° E 22:24:57 10° N
H-2A R/B 1.8 22:17:03 10° WSW 22:18:42 25° SW 22:18:42 25° SW
Cosmos 2151 2.8 22:18:32 32° SSE 22:20:20 68° E 22:24:31 10° NNE
Meteor 2-20 Rocket 4.4 22:14:47 10° S 22:20:57 86° E 22:27:07 10° N
COSMOS 2428 4.3 22:19:17 10° NNE 22:23:14 19° ENE 22:24:46 17° E
NOSS 3-1 (C) 3.3 22:17:47 10° SSW 22:23:22 59° ESE 22:29:25 10° NE
YAOGAN 6 3.5 22:23:27 33° ENE 22:23:27 33° ENE 22:26:42 10° N
Cosmos 2315 Rocket 4.5 22:17:39 10° N 22:23:28 41° E 22:25:34 32° ESE
Cosmos 405 2.9 22:23:49 10° N 22:27:26 67° E 22:27:44 63° ESE
Cosmos 1328 3.6 22:28:08 51° SSE 22:29:00 73° E 22:32:56 10° N
H-2A R/B 3.9 22:29:35 16° ENE 22:30:18 16° ENE 22:33:30 10° NNE
Cosmos 304 Rocket 4.2 22:26:43 10° N 22:31:20 44° ENE 22:32:12 40° E
Cosmos 1805 Rocket 3.7 22:33:35 51° ESE 22:34:07 54° E 22:38:28 10° NNE
MetOp-A 4.1 22:33:52 40° SSE 22:35:49 71° ENE 22:41:09 10° N
SL-24 R/B - RUBIN 2 4.5 22:30:19 10° NNW 22:37:04 77° ENE 22:39:35 40° SE
Cosmos 1151 Rocket 2.9 22:33:14 10° N 22:37:33 84° W 22:38:40 49° S
ARGOS 3.7 22:37:03 36° ESE 22:38:10 40° ENE 22:43:11 10° N
Cosmos 2219 Rocket 4.3 22:37:33 10° NE 22:39:37 12° ENE 22:40:42 11° ENE
SPOT 1/Viking Rocket 3.7 22:41:07 46° ESE 22:42:08 53° ENE 22:47:07 10° N
Delta 128 4.4 22:38:13 10° W 22:42:10 35° SSW 22:42:10 35° SSW
Cosmos 2058 2.7 22:46:02 78° SSE 22:46:15 84° E 22:50:21 10° N
Cosmos 1680 Rocket 3.5 22:43:27 10° N 22:48:41 68° ENE 22:49:36 56° SE
H-2A R/B 3.7 22:48:07 19° SSW 22:50:31 31° W 22:54:32 10° NW
Cosmos 923 Rocket 3.9 22:47:10 10° NNW 22:52:22 81° WSW 22:53:33 54° S
Cosmos 2219 3.5 22:46:56 10° SSW 22:52:38 66° WNW 22:58:22 10° NNE
Terra 3.4 22:55:46 22° ENE 22:55:46 22° ENE 22:58:56 10° NNE
CZ-4B R/B 3.8 22:50:45 10° N 22:55:58 67° WNW 22:58:43 28° SSW
SL-14 R/B 3.8 22:56:58 49° NNE 22:56:58 49° NNE 22:59:59 10° NNE
Cosmos 1666 Rocket 3.5 22:56:36 69° ENE 22:56:36 69° ENE 23:00:42 10° N
Cosmos 1898 Rocket 3.3 22:56:18 65° SE 22:56:38 67° ESE 23:01:47 10° NNE
Cosmos 1745 Rocket 4.4 22:57:28 42° E 22:57:46 42° E 23:03:32 10° NNE
Cosmos 2150 Rocket 4.0 22:57:10 60° SSE 22:58:01 72° ESE 23:03:28 10° NNE
Cosmos 1707 Rocket 3.9 22:54:20 10° N 22:58:03 51° NE 22:58:03 51° NE
Cosmos 858 Rocket 4.3 23:04:03 72° ESE 23:04:10 72° ESE 23:09:22 10° NNE
Cosmos 1726 3.6 23:00:35 10° N 23:02:46 30° NNE 23:02:46 30° NNE
Meteor 1-27 4.1 22:59:04 10° N 23:04:43 65° E 23:05:12 62° ESE
Meteor 2-11 Rocket 4.4 22:59:04 10° N 23:05:10 66° E 23:06:04 58° SE
Cosmos 2322 3.7 23:01:33 10° NNW 23:07:16 79° WSW 23:08:14 62° S
Cosmos 2237 Rocket 4.2 23:05:15 10° NNE 23:08:13 14° ENE 23:08:42 14° ENE
OAO 2 Rocket 3.3 23:05:27 10° WSW 23:10:47 85° NNW 23:11:38 64° ENE
Cosmos 2322 Rocket 4.2 23:07:05 10° NW 23:11:05 20° W 23:13:58 14° SW
CZ-4 R/B 4.3 23:10:37 10° N 23:15:27 58° WNW 23:16:34 46° WSW
NOAA 11 4.0 23:16:38 76° S 23:17:04 86° WSW 23:22:32 10° NNW
SL-16 R/B 4.3 23:17:27 10° WNW 23:21:07 18° W 23:23:46 13° SW
Cosmos 2360 Rocket 2.5 23:16:09 10° NNW 23:21:39 55° WSW 23:22:22 51° SW
NOSS 3-1 (A) 3.9 23:21:17 14° SW 23:26:14 57° WNW 23:32:24 10° NNE
USA 32 4.1 23:29:21 10° N 23:34:02 72° N 23:34:02 72° N
Meteor 2-10 4.5 23:29:12 10° N 23:34:15 57° NE 23:34:15 57° NE
Cosmos 2227 Rocket 2.6 23:42:28 55° NE 23:42:28 55° NE 23:46:54 10° NNE
ATLAS 2AS CENTAUR R/B 2.7 23:48:09 74° SE 23:48:18 75° ESE 23:56:10 10° NNE
